Location: Pasarilla del Rebollar
(40.6790°N, 5.0062°W)
Time: 12:08:28
(UTC+00:00)

FENGYUN 3A - Pass Details

Date: 22 April 2026
Orbit: 821 x 833 km, 98.7° (Epoch: 16 May)

Event Time Altitude Azimuth Distance (km) Brightness Sun altitude
Rises 02:30:54 0° 10° (N) 3,387 7.8 -28.9°
Reaches altitude 10° 02:33:16 10° 9° (N) 2,449 6.8 -28.7°
Enters shadow 02:38:15 66° 318° (NW) 905 3.7 -28.1°
